Powrót do katalogu

ARIANE 44P R/B

AktywnyGTO
NORAD 21223·ROCKET BODY·🇫🇷 France

Wystrzelony Apr 4, 1991 z Guiana Space Centre

Loading…

TLE

Starzejące sięSource: Space-Track

Epoka: Sep 14, 2026, 06:31 UTC

1 21223U 91026B   26257.27215598  .00000215  00000-0  83004-3 0  9995
2 21223   3.3525 182.9034 7173808  81.4348 347.0052  2.32344488274854

Śledź ARIANE 44P R/B w czasie rzeczywistym z AllMySat

Download on the App Store